x

Tanner Bank - 121nm West Of San Diego, Ca (46047) Wave Buoy

3:50pm - Wed 27th Jul 2016 All times are PDT. -7 hours from GMT.

  • Sig Wave height 4.9ft
  • Swell Direction
  • Peak Period 11s
  • Average Period 7s
  • Wind
    11mph, 13mph gusts
  • Sea Temp 65°f
  • Air Temp 62°f
  • Sea Pressure 1013.3mb
  • Tanner Bank - 121nm West Of San Diego, Ca
  • Tanner Bank - 121nm West Of San Diego, Ca

More Historic Weather Station data

Upgrade to MSW Pro to gain access to the past 30 days of data for over 8000 Wavebouys and Weather Stations around the globe.

Join Pro

Comparision Forecast

View Surf forecast
   
Wed 07/27 3:50pm 5ft 11s 7s 11 13 mph 1013.3mb 65f 62f
2:50pm 5ft 10s 8s 9
mph
1014.1mb 65f 62f
1:50pm 4.5ft 10s 7s 11 13 mph 1014.2mb 65f 62f
12:50pm 5ft 10s 8s 11 13 mph 1014.4mb 65f 62f
11:50am 4.5ft 11s 7s 11 13 mph 1014.3mb 65f 61f
10:50am 4.5ft 10s 7s 11 13 mph 1014.3mb 65f 61f
9:50am 4.5ft 11s 7s 9 13 mph 1014.2mb 65f 61f
8:50am 5ft 10s 7s 11 13 mph 1013.8mb 65f 60f
7:50am 5.5ft 10s 8s 9 11 mph 1013.4mb 65f 60f
6:50am 4.5ft 11s 7s 9 13 mph 1013.1mb 65f 60f
5:50am 4.5ft 9s 7s 7 9 mph 1012.7mb 65f 60f
4:50am 4.5ft 9s 7s 11 13 mph 1011.9mb 65f 60f
3:50am 4.5ft 9s 7s 11 13 mph 1011.7mb 65f 61f
2:50am 4.5ft 10s 7s 11 16 mph 1011.5mb 65f 60f
1:50am 5ft 10s 7s 9 13 mph 1012.1mb 65f 60f
12:50am 4.5ft 9s 7s 9 11 mph 1012.5mb 65f 61f
Tue 07/26 11:50pm 4ft 13s 6s 11 16 mph 1012.4mb 65f 60f
10:50pm 5ft 9s 7s 11 16 mph 1012.8mb 65f 61f
9:50pm 4.5ft 9s 6s 11 13 mph 1012.5mb 65f 61f
8:50pm 4.5ft 9s 6s 13 18 mph 1011.8mb 65f 61f
7:50pm 5ft 9s 6s 13 16 mph 1011.6mb 65f 61f
6:50pm 5ft 10s 6s 13 16 mph 1011.6mb 65f 61f
4:50pm 4.5ft 10s 6s 16 18 mph 1011.4mb 65f 62f
3:50pm 5ft 9s 7s 13 18 mph 1011.8mb 66f 62f
2:50pm 5ft 9s 7s 13 16 mph 1012.3mb 66f 61f
1:50pm 5ft 10s 8s 11 13 mph 1012.8mb 66f 61f
12:50pm 4.5ft 10s 8s 11 13 mph 1013.2mb 65f 61f
11:50am 4.5ft 9s 8s 9 11 mph 1013.7mb 65f 61f
10:50am 5ft 10s 8s 4 7 mph 1013.9mb 64f 61f
9:50am 5ft 10s 8s 9 11 mph 1013.6mb 63f 60f
8:50am 5ft 9s 7s 9 11 mph 1013.5mb 64f 60f
7:50am 6ft 10s 8s 9 11 mph 1012.9mb 64f 60f
6:50am 6ft 10s 8s 9 13 mph 1013.2mb 64f 60f
5:50am 5.5ft 9s 8s 9 13 mph 1012.9mb 64f 60f
4:50am 6ft 10s 8s 9 13 mph 1012.3mb 64f 60f
3:50am 5.5ft 10s 8s 9 11 mph 1012.6mb 65f 60f
2:50am 6ft 10s 8s 7 11 mph 1013.1mb 65f 61f
1:50am 6ft 11s 8s 7 9 mph 1013.2mb 65f 61f
12:50am 6ft 10s 8s 7 9 mph 1013.5mb 66f 62f
Mon 07/25 11:50pm 5ft 11s 8s 9 11 mph 1013.5mb 65f 62f
10:50pm 4.5ft 10s 8s 9 13 mph 1013.4mb 66f 62f
9:50pm 5ft 11s 8s 11 13 mph 1013.4mb 65f 62f
8:50pm 4.5ft 10s 7s 11 13 mph 1012.7mb 64f 62f
7:50pm 5.5ft 9s 8s 9 11 mph 1012.6mb 65f 63f
6:50pm 5.5ft 9s 7s 7 9 mph 1012.6mb 66f 64f
5:50pm 6ft 9s 8s 4 7 mph 1012.6mb 66f 65f
4:50pm 6ft 9s 8s 4
mph
1013.1mb 66f 65f
3:50pm 6ft 10s 8s 7 9 mph 1013.2mb 67f 65f
2:50pm 5.5ft 10s 8s 9 11 mph 1013.1mb 66f 65f
1:50pm 6ft 10s 8s 4
mph
1014.1mb 66f 65f
12:50pm 5ft 10s 8s 2 4 mph 1014.8mb 65f 65f
11:50am 5ft 10s 8s  -  2 mph 1015mb 64f 65f
10:50am 5ft 9s 8s  -  2 mph 1015.1mb 64f 65f
9:50am 5ft 10s 8s 2 4 mph 1015.2mb 64f 64f
8:50am 5ft 9s 7s  -  2 mph 1015.2mb 63f 63f
7:50am 6ft 10s 8s 2
mph
1014.4mb 63f 63f
6:50am 6ft 10s 7s 2 4 mph 1014mb 63f 63f
5:50am 6.5ft 10s 8s  -  2 mph 1013.4mb 63f 63f
4:50am 6.5ft 10s 8s  -  2 mph 1012.9mb 63f 63f
3:50am 6ft 10s 8s  -  2 mph 1012.7mb 63f 63f
2:50am 6.5ft 10s 8s 2 4 mph 1012.8mb 64f 63f
1:50am 6ft 10s 8s 2 4 mph 1012.7mb 64f 63f
12:50am 6ft 10s 8s 2 7 mph 1012.8mb 65f 63f
Sun 07/24 11:50pm 6ft 9s 8s 2 4 mph 1012.8mb 65f 64f
10:50pm 5.5ft 14s 8s 2 4 mph 1012.9mb 64f 63f
9:50pm 5.5ft 10s 7s 4 7 mph 1012.7mb 63f 64f
8:50pm 5ft 14s 7s 4 7 mph 1012.2mb 63f 64f
7:50pm 6ft 9s 7s 4 7 mph 1012mb 63f 64f
6:50pm 6ft 9s 7s 7 9 mph 1012mb 63f 64f
5:50pm 6.5ft 9s 7s 7 9 mph 1011.6mb 64f 64f
4:50pm 7ft 9s 7s  -  2 mph 1011.6mb 65f 65f
3:50pm 7ft 9s 7s  -  2 mph 1011.7mb 64f 65f
2:50pm 7ft 9s 8s 2 4 mph 1012.1mb 63f 64f
1:50pm 7ft 10s 8s 4 7 mph 1012.4mb 63f 64f
12:50pm 6.5ft 9s 8s 9 11 mph 1012.6mb 63f 64f
11:50am 6ft 9s 8s 9 11 mph 1012.4mb 63f 63f
10:50am 5.5ft 9s 8s 11 13 mph 1012.1mb 63f 64f
9:50am 5.5ft 9s 8s 9 11 mph 1011.6mb 63f 64f
8:50am 6ft 8s 7s 9 11 mph 1011.2mb 63f 64f
7:50am 7ft 10s 8s 7 9 mph 1010.6mb 63f 63f
6:50am 7ft 9s 7s 4 7 mph 1009.7mb 63f 62f
5:50am 6.5ft 9s 7s 4 7 mph 1009.3mb 63f 63f
4:50am 7.5ft 10s 7s 2 4 mph 1008.8mb 63f 63f
3:50am 7.5ft 9s 7s 4 7 mph 1008.7mb 63f 63f
2:50am 7ft 9s 7s 4
mph
1008.7mb 63f 63f
1:50am 8ft 9s 7s 7 9 mph 1008.9mb 63f 63f
12:50am 7ft 9s 7s 9 11 mph 1009mb 63f 62f